Location: ????????
(55.4000°N, 39.1167°E)
Time: 03:54:38
(UTC+00:00)

Cosmos 1515 Rocket - Pass Details

Date: 19 May 2025
Orbit: 601 x 623 km, 82.5° (Epoch: 19 June)

Event Time Altitude Azimuth Distance (km) Brightness Sun altitude
Exits shadow 23:14:58 14° 222° (SW) 1,696 5.2 -10.8°
Maximum altitude 23:18:23 42° 290° (WNW) 889 4.3 -10.5°
Drops below altitude 10° 23:22:34 10° 1° (N) 1,991 7.2 -10.2°
Sets 23:24:55 0° 9° (N) 2,905 8.5 -10.1°
